[[{"header":{"parameterUnit":"m.s-1","parameterCategory":1,"la1":30.2991,"la2":30.254,"lo1":-89.0895,"lo2":-89.0444,"dy":0.0017,"dx":0.0017,"nx":28,"ny":28,"refTime":"2024-10-03T21:00:00:Z","depth":0,"parameterNumber":2,"parameterNumberName":"U-component_of_WINDS"},"data":[0,0,0,0,0,0,0,0,0,0,0,0,0,0,0,0,0,0,0,0,0,0,0,0,0,0,0,0,0,0,0,0,0,0,0,0,0,0,0,0,0,0,0,0,0,0,0,0,0,0,0,0,0,0,0,0,0,0,-3.0721,-3.0721,0,-3.0777,-3.0777,-3.0778,-3.0683,-3.068,-3.0677,-3.0674,-3.0732,-3.0737,-3.0741,0,0,0,0,0,0,0,0,0,0,0,0,0,-3.0532,-3.0536,-3.0721,-3.0721,-3.0722,-3.0776,-3.0777,-3.0778,-3.0684,-3.068,-3.0676,-3.0672,-3.0731,-3.0736,-3.0742,0,0,0,0,0,0,0,0,0,0,0,0,0,-3.0604,-3.0538,-3.072,-3.0682,-3.0679,-3.0776,-3.0777,-3.0778,-3.0685,-3.068,-3.0675,-3.0671,-3.0729,-3.0736,-3.0742,-3.0881,0,0,-3.0763,-3.0766,0,0,0,0,0,0,0,0,-3.06,-3.0611,-3.0687,-3.0684,-3.0681,-3.0718,-3.0732,-3.0813,-3.0686,-3.0683,-3.0674,-3.0668,-3.0732,-3.0738,-3.0759,-3.0884,-3.0886,-3.0764,-3.0768,-3.0771,-3.0773,0,0,0,0,0,0,0,-3.0595,-3.0608,-3.0743,-3.0688,-3.0685,-3.0661,-3.0666,-3.0747,-3.0733,-3.0682,-3.0676,-3.0684,-3.0729,-3.0753,-3.076,-3.0887,-3.0764,-3.077,-3.0774,-3.0777,-3.1127,-3.1132,0,0,0,0,0,0,-3.0595,-3.0605,-3.0741,-3.0744,-3.0628,-3.0669,-3.0674,-3.0711,-3.0732,-3.0731,-3.0688,-3.0679,-3.0743,-3.0752,-3.0761,-3.0924,-3.0771,-3.0777,-3.0781,-3.1122,-3.1128,-3.1134,0,0,0,0,0,0,-3.0591,-3.0608,-3.0739,-3.0673,-3.0687,-3.0677,-3.0719,-3.0715,-3.0738,-3.0736,-3.0733,-3.0714,-3.074,-3.0752,-3.0852,-3.0925,-3.078,-3.0786,-3.1116,-3.1124,-3.1131,-3.1252,0,0,0,0,0,0,-3.0586,-3.0607,-3.066,-3.0675,-3.0691,-3.0829,-3.0724,-3.0719,-3.075,-3.0739,-3.076,-3.0759,-3.0737,-3.0842,-3.0858,-3.0932,-3.0792,-3.1109,-3.1119,-3.1129,-3.1242,-3.1263,-3.1282,0,0,0,0,0,-3.058,-3.0692,-3.0663,-3.068,-3.0757,-3.0833,-3.0842,-3.0815,-3.0756,-3.0809,-3.0808,-3.0758,-3.0914,-3.0853,-3.0871,-3.0947,-3.1105,-3.1117,-3.1128,-3.1233,-3.1259,-3.1282,0,0,0,0,0,0,-3.0687,-3.0693,-3.0661,-3.0781,-3.0807,-3.0817,-3.0882,-3.0843,-3.0887,-3.0875,-3.0838,-3.0844,-3.0951,-3.0959,-3.0891,-3.1082,-3.1,-3.1016,-3.1073,-3.1098,-3.1118,-3.1114,-3.0797,0,0,0,0,0,-3.0724,-3.0786,-3.0788,-3.0894,-3.0908,-3.0894,-3.0926,-3.0902,-3.0927,-3.0938,-3.0943,-3.097,-3.1025,-3.1062,-3.1112,-3.1242,-3.1245,-3.1304,-3.1324,-3.134,-3.1355,-3.1423,-3.1449,-3.1173,-3.1173,-3.1172,0,0,-3.0803,-3.0814,-3.0855,-3.0916,-3.0933,-3.0997,-3.0903,-3.0975,-3.1022,-3.0948,-3.1043,-3.1048,-3.1076,-3.1191,-3.1242,-3.1201,-3.1431,-3.1355,-3.1368,-3.1374,-3.1438,-3.1464,-3.1488,-3.1181,-3.1179,-3.1178,0,0,-3.0978,-3.0993,-3.1082,-3.1101,-3.1128,-3.1118,-3.1139,-3.1155,-3.1155,-3.1249,-3.1195,-3.1251,-3.1346,-3.1367,-3.1391,-3.1574,-3.153,-3.1591,-3.1696,-3.1764,-3.1786,-3.1805,-3.187,-3.1894,-3.1605,-3.1606,-3.1606,0,-3.1072,-3.1167,-3.1134,-3.1209,-3.1237,-3.1173,-3.1263,-3.1283,-3.1326,-3.1347,-3.13,-3.1417,-3.1431,-3.1551,-3.1595,-3.1617,-3.164,-3.1589,-3.1785,-3.1804,-3.1821,-3.1883,-3.1908,-3.1613,-3.1612,-3.1611,-3.1611,0,-3.1281,-3.1347,-3.1416,-3.1458,-3.1494,-3.1577,-3.1556,-3.1597,-3.1569,-3.1564,-3.166,-3.1674,-3.1726,-3.1753,-3.1727,-3.1869,-3.1842,-3.1791,-3.1707,-3.1856,-3.1913,-3.1936,-3.1623,-3.1621,-3.1619,-3.1617,0,0,-3.1526,-3.1548,-3.1574,-3.1592,-3.1617,-3.1667,-3.1747,-3.1797,-3.1833,-3.1864,-3.193,-3.2011,-3.1964,-3.199,-3.1966,-3.2026,-3.217,-3.1967,-3.1967,-3.2004,-3.2326,-3.2365,-3.2393,-3.214,-3.2145,-3.2148,-3.2324,0,-3.1701,-3.1838,-3.181,-3.1944,-3.2005,-3.1944,-3.2013,-3.2036,-3.2032,-3.2083,-3.2079,-3.2138,-3.207,-3.2086,-3.2142,-3.214,-3.2234,-3.2127,-3.2201,-3.2205,-3.2197,-3.2423,-3.2464,-3.2629,-3.2346,-3.235,-3.2353,0,-3.1923,-3.1962,-3.2102,-3.2116,-3.2141,-3.2204,-3.2247,-3.2296,-3.2321,-3.2314,-3.2344,-3.2308,-3.2387,-3.2302,-3.241,-3.2338,-3.2367,-3.2371,-3.2376,-3.2382,-3.2288,-3.2435,-3.2681,-3.2706,-3.2388,-3.2385,-3.2382,0,-3.2088,-3.2175,-3.227,-3.2288,-3.2307,-3.2352,-3.2363,-3.2382,-3.2414,-3.2452,-3.2472,-3.2519,-3.2545,-3.2582,-3.256,-3.25,-3.2672,-3.2585,-3.2669,-3.267,-3.2708,-3.2706,-3.2962,-3.2727,-3.2726,-3.2726,-3.2725,0,-3.2286,-3.2374,-3.2345,-3.2403,-3.25,-3.2467,-3.2564,-3.2567,-3.2585,-3.2643,-3.2593,-3.2648,-3.2616,-3.2669,-3.2652,-3.2744,-3.2756,-3.2753,-3.2747,-3.2757,-3.2758,-3.2776,-3.2764,-3.2732,-3.2731,-3.273,-3.2728,0,-3.2487,-3.2471,-3.257,-3.258,-3.2584,-3.2655,-3.2663,-3.2718,-3.271,-3.2784,-3.28,-3.2788,-3.2848,-3.2829,-3.2894,-3.2882,-3.2999,-3.2979,-3.2991,-3.2986,-3.3071,-3.3063,-3.3348,-3.3383,-3.3125,-3.3127,-3.3129,0,-3.2614,-3.2681,-3.2697,-3.2732,-3.2746,-3.2803,-3.2835,-3.2805,-3.2841,-3.2873,-3.2923,-3.2978,-3.3021,-3.3119,-3.3117,-3.3165,-3.3146,-3.3242,-3.3153,-3.3161,-3.3148,-3.3144,-3.315,-3.326,-3.3263,-3.3266,-3.3268,0,-3.2842,-3.2831,-3.2879,-3.2924,-3.2964,-3.2998,-3.3028,-3.306,-3.3031,-3.3074,-3.3134,-3.3167,-3.3232,-3.3288,-3.3332,-3.3342,-3.3301,-3.3296,-3.3318,-3.3329,-3.3333,-3.3332,-3.304,-3.329,-3.3287,-3.3286,-3.3285,-3.3284,-3.301,-3.3066,-3.3087,-3.3142,-3.3161,-3.319,-3.3241,-3.324,-3.3289,-3.334,-3.3319,-3.3388,-3.341,-3.3465,-3.3481,-3.3535,-3.3498,-3.353,-3.3538,-3.3546,-3.3557,-3.3325,-3.3543,-3.3542,-3.3541,-3.3541,-3.354,0,-3.3236,-3.3246,-3.3296,-3.3339,-3.3383,-3.3339,-3.337,-3.3409,-3.3471,-3.3494,-3.3537,-3.3606,-3.3659,-3.366,-3.371,-3.3753,-3.3735,-3.3767,-3.3763,-3.3766,-3.3587,-3.3563,-3.378,-3.378,-3.378,-3.378,-3.378,-3.378,-3.3358,-3.345,-3.3441,-3.3542,-3.3551,-3.3619,-3.364,-3.3666,-3.3685,-3.3764,-3.3808,-3.3808,-3.3823,-3.3873,-3.392,-3.3918,-3.3939,-3.3978,-3.397,-3.3803,-3.3779,-3.3756,-3.3734,-3.3983,-3.3983,-3.4145,-3.4146,-3.4148]},{"header":{"parameterUnit":"m.s-1","parameterCategory":1,"la1":30.2991,"la2":30.254,"lo1":-89.0895,"lo2":-89.0444,"dy":0.0017,"dx":0.0017,"nx":28,"ny":28,"refTime":"2024-10-03T21:00:00:Z","depth":0,"parameterNumber":3,"parameterNumberName":"V-component_of_WINDS"},"data":[0,0,0,0,0,0,0,0,0,0,0,0,0,0,0,0,0,0,0,0,0,0,0,0,0,0,0,0,0,0,0,0,0,0,0,0,0,0,0,0,0,0,0,0,0,0,0,0,0,0,0,0,0,0,0,0,0,0,-1.4628,-1.4627,0,-1.4594,-1.4594,-1.4593,-1.4614,-1.4615,-1.4616,-1.4617,-1.4577,-1.4575,-1.4573,0,0,0,0,0,0,0,0,0,0,0,0,0,-1.4705,-1.4703,-1.4628,-1.4627,-1.4627,-1.4594,-1.4594,-1.4593,-1.4614,-1.4616,-1.4617,-1.4618,-1.4578,-1.4576,-1.4573,0,0,0,0,0,0,0,0,0,0,0,0,0,-1.4671,-1.4703,-1.4628,-1.4634,-1.4634,-1.4594,-1.4594,-1.4593,-1.4614,-1.4616,-1.4617,-1.4618,-1.4579,-1.4576,-1.4573,-1.4524,0,0,-1.4564,-1.4562,0,0,0,0,0,0,0,0,-1.4673,-1.4668,-1.4633,-1.4633,-1.4633,-1.461,-1.4606,-1.457,-1.4614,-1.4621,-1.4617,-1.4619,-1.4587,-1.4583,-1.4573,-1.4522,-1.452,-1.4563,-1.4562,-1.456,-1.4559,0,0,0,0,0,0,0,-1.4675,-1.467,-1.4614,-1.4633,-1.4633,-1.4636,-1.4633,-1.4599,-1.4596,-1.4621,-1.4622,-1.4618,-1.4587,-1.4576,-1.4572,-1.452,-1.4563,-1.4561,-1.4559,-1.4558,-1.4423,-1.4422,0,0,0,0,0,0,-1.4678,-1.4671,-1.4615,-1.4613,-1.4657,-1.4633,-1.463,-1.4616,-1.4596,-1.4595,-1.4617,-1.4619,-1.458,-1.4576,-1.4571,-1.451,-1.456,-1.4557,-1.4556,-1.4425,-1.4423,-1.4421,0,0,0,0,0,0,-1.4679,-1.4673,-1.4617,-1.4643,-1.4636,-1.463,-1.4615,-1.4614,-1.4604,-1.4593,-1.4592,-1.4607,-1.4582,-1.4575,-1.4535,-1.4509,-1.4556,-1.4553,-1.4427,-1.4424,-1.4422,-1.439,0,0,0,0,0,0,-1.4681,-1.4673,-1.4656,-1.4642,-1.4634,-1.4583,-1.4613,-1.4613,-1.4599,-1.4602,-1.4584,-1.4582,-1.4582,-1.454,-1.4532,-1.4506,-1.4551,-1.4429,-1.4426,-1.4423,-1.4393,-1.4386,-1.438,0,0,0,0,0,-1.4684,-1.4647,-1.4655,-1.4648,-1.4613,-1.4582,-1.4577,-1.4579,-1.4597,-1.4578,-1.4571,-1.4583,-1.4514,-1.4535,-1.4527,-1.45,-1.4431,-1.4427,-1.4423,-1.4396,-1.4387,-1.438,0,0,0,0,0,0,-1.4657,-1.4646,-1.4654,-1.4612,-1.4598,-1.4585,-1.4562,-1.4571,-1.455,-1.4553,-1.4556,-1.4551,-1.4509,-1.4501,-1.4525,-1.445,-1.4475,-1.4469,-1.4457,-1.4449,-1.4443,-1.4445,-1.4548,0,0,0,0,0,-1.4646,-1.4623,-1.4614,-1.4578,-1.4571,-1.4568,-1.4554,-1.4557,-1.4542,-1.4535,-1.4525,-1.4508,-1.4483,-1.4465,-1.4442,-1.4392,-1.4387,-1.4369,-1.4363,-1.4358,-1.4352,-1.4323,-1.4314,-1.4408,-1.4408,-1.4408,0,0,-1.4623,-1.4614,-1.46,-1.4572,-1.4562,-1.4535,-1.4562,-1.4534,-1.4514,-1.453,-1.4492,-1.4484,-1.4465,-1.4419,-1.4399,-1.4411,-1.4325,-1.4353,-1.4349,-1.4346,-1.4318,-1.4309,-1.4301,-1.4405,-1.4406,-1.4406,0,0,-1.4568,-1.456,-1.4528,-1.4517,-1.4501,-1.4499,-1.4491,-1.4477,-1.4473,-1.4435,-1.4446,-1.4421,-1.4377,-1.4362,-1.4349,-1.4287,-1.4295,-1.4279,-1.4246,-1.4217,-1.4209,-1.4203,-1.4178,-1.417,-1.4274,-1.4274,-1.4274,0,-1.4541,-1.4504,-1.451,-1.4481,-1.4467,-1.4482,-1.4448,-1.4437,-1.4413,-1.4402,-1.4417,-1.4361,-1.4349,-1.4299,-1.4284,-1.4274,-1.4263,-1.428,-1.4211,-1.4204,-1.4198,-1.4174,-1.4165,-1.4272,-1.4272,-1.4272,-1.4272,0,-1.447,-1.4445,-1.442,-1.4398,-1.4382,-1.4351,-1.4349,-1.4332,-1.4336,-1.4332,-1.4291,-1.4278,-1.4251,-1.4239,-1.4243,-1.4189,-1.4197,-1.4211,-1.4236,-1.4187,-1.4164,-1.4156,-1.4269,-1.427,-1.427,-1.4271,0,0,-1.4396,-1.4378,-1.4368,-1.4357,-1.434,-1.4319,-1.4287,-1.4262,-1.4246,-1.4229,-1.42,-1.4162,-1.4175,-1.416,-1.4162,-1.4137,-1.4085,-1.4154,-1.4153,-1.414,-1.4022,-1.401,-1.4,-1.4092,-1.409,-1.4089,-1.4023,0,-1.4338,-1.4284,-1.4288,-1.4236,-1.4211,-1.4225,-1.4196,-1.4181,-1.4176,-1.4152,-1.4146,-1.4119,-1.4139,-1.4129,-1.4106,-1.4097,-1.4061,-1.4102,-1.4062,-1.4061,-1.4065,-1.3988,-1.3976,-1.3914,-1.4014,-1.4013,-1.4012,0,-1.4263,-1.4244,-1.419,-1.4176,-1.4165,-1.414,-1.4116,-1.4094,-1.4076,-1.4074,-1.4057,-1.4063,-1.4027,-1.4055,-1.4005,-1.4032,-1.4016,-1.4009,-1.4007,-1.4002,-1.4032,-1.3979,-1.3895,-1.3885,-1.3999,-1.4,-1.4001,0,-1.4211,-1.4173,-1.4135,-1.4125,-1.4108,-1.4089,-1.4081,-1.4065,-1.4049,-1.4027,-1.4016,-1.399,-1.3975,-1.3954,-1.3952,-1.3972,-1.39,-1.3928,-1.3895,-1.3895,-1.3878,-1.3879,-1.3788,-1.3871,-1.3871,-1.3872,-1.3872,0,-1.4145,-1.4111,-1.4111,-1.4088,-1.4049,-1.4053,-1.4014,-1.4007,-1.3992,-1.3966,-1.3976,-1.395,-1.395,-1.3923,-1.392,-1.3878,-1.3872,-1.3867,-1.3866,-1.3865,-1.3865,-1.3853,-1.3856,-1.3869,-1.387,-1.387,-1.3871,0,-1.408,-1.4079,-1.4039,-1.4025,-1.4021,-1.3993,-1.398,-1.3957,-1.3953,-1.3919,-1.3911,-1.3904,-1.3872,-1.3869,-1.3832,-1.383,-1.3778,-1.3783,-1.3784,-1.3784,-1.3751,-1.3753,-1.3647,-1.3632,-1.3728,-1.3727,-1.3726,0,-1.4037,-1.4011,-1.3995,-1.3979,-1.3969,-1.3943,-1.3927,-1.3929,-1.3911,-1.3889,-1.3867,-1.3837,-1.3813,-1.3762,-1.3752,-1.3723,-1.3726,-1.3691,-1.3721,-1.372,-1.3722,-1.3723,-1.3719,-1.3684,-1.3683,-1.3682,-1.3682,0,-1.3959,-1.396,-1.3937,-1.3913,-1.3894,-1.3875,-1.3857,-1.3843,-1.3843,-1.3822,-1.3791,-1.3772,-1.3735,-1.3704,-1.3675,-1.3664,-1.3671,-1.3672,-1.3663,-1.366,-1.3661,-1.3657,-1.3766,-1.3674,-1.3675,-1.3676,-1.3676,-1.3676,-1.3902,-1.3879,-1.3864,-1.3837,-1.3824,-1.3807,-1.3784,-1.3777,-1.3752,-1.3723,-1.3725,-1.369,-1.3671,-1.3633,-1.362,-1.3591,-1.3602,-1.3589,-1.3585,-1.3581,-1.3577,-1.3667,-1.3586,-1.3586,-1.3586,-1.3586,-1.3587,0,-1.3823,-1.3814,-1.3789,-1.3765,-1.3743,-1.3755,-1.3735,-1.3716,-1.3685,-1.3668,-1.3644,-1.3607,-1.3577,-1.3565,-1.3534,-1.3513,-1.3515,-1.3505,-1.3505,-1.3502,-1.357,-1.358,-1.3503,-1.3503,-1.3503,-1.3503,-1.3503,-1.3503,-1.3779,-1.3739,-1.3738,-1.3692,-1.3682,-1.3649,-1.3637,-1.362,-1.3606,-1.3565,-1.354,-1.3533,-1.3516,-1.3485,-1.3457,-1.3454,-1.3441,-1.3428,-1.3426,-1.3489,-1.3497,-1.3505,-1.3515,-1.3426,-1.3425,-1.336,-1.336,-1.3359]}]]